[[{"header":{"parameterUnit":"m.s-1","parameterCategory":1,"la1":30.2991,"la2":30.254,"lo1":-89.0895,"lo2":-89.0444,"dy":0.0017,"dx":0.0017,"nx":28,"ny":28,"refTime":"2024-06-29T03:00:00:Z","depth":0,"parameterNumber":2,"parameterNumberName":"U-component_of_WINDS"},"data":[0,0,0,0,0,0,0,0,0,0,0,0,0,0,0,0,0,0,0,0,0,0,0,0,0,0,0,0,0,0,0,0,0,0,0,0,0,0,0,0,0,0,0,0,0,0,0,0,0,0,0,0,0,0,0,0,0,0,1.6495,1.6495,0,1.651,1.651,1.6511,1.644,1.6438,1.6436,1.6434,1.6455,1.6457,1.6459,0,0,0,0,0,0,0,0,0,0,0,0,0,1.6412,1.6414,1.6495,1.6495,1.6496,1.651,1.651,1.6511,1.6441,1.6438,1.6436,1.6433,1.6454,1.6457,1.646,0,0,0,0,0,0,0,0,0,0,0,0,0,1.644,1.6414,1.6495,1.6462,1.646,1.651,1.651,1.6511,1.6441,1.6438,1.6435,1.6432,1.6453,1.6456,1.646,1.6544,0,0,1.6471,1.6473,0,0,0,0,0,0,0,0,1.6438,1.6443,1.6467,1.6465,1.6462,1.647,1.6488,1.6522,1.6442,1.6448,1.6434,1.6431,1.6463,1.6465,1.6475,1.6545,1.6546,1.6472,1.6474,1.6475,1.6476,0,0,0,0,0,0,0,1.6436,1.6442,1.6501,1.6467,1.6464,1.6449,1.6449,1.6494,1.6473,1.6448,1.6442,1.6445,1.6461,1.6472,1.6475,1.6546,1.6471,1.6475,1.6477,1.6478,1.6688,1.6691,0,0,0,0,0,0,1.6438,1.6441,1.6501,1.6502,1.6442,1.6453,1.6453,1.6471,1.6472,1.6469,1.6448,1.6442,1.6467,1.6471,1.6475,1.6574,1.6475,1.6479,1.6481,1.6685,1.6689,1.6693,0,0,0,0,0,0,1.6437,1.6444,1.65,1.647,1.6476,1.6457,1.6477,1.6473,1.6483,1.6472,1.6468,1.6462,1.6465,1.647,1.6528,1.6574,1.648,1.6484,1.6681,1.6686,1.6691,1.6773,0,0,0,0,0,0,1.6434,1.6444,1.6474,1.6471,1.6478,1.655,1.648,1.6475,1.6489,1.6482,1.6485,1.6482,1.6463,1.6522,1.6531,1.6577,1.6487,1.6677,1.6683,1.6689,1.6766,1.678,1.6792,0,0,0,0,0,1.6432,1.6497,1.6476,1.6484,1.6515,1.6553,1.6557,1.6531,1.6493,1.6524,1.6518,1.6482,1.6568,1.6529,1.6538,1.6586,1.6674,1.6681,1.6689,1.676,1.6777,1.6792,0,0,0,0,0,0,1.6508,1.6496,1.6472,1.6539,1.6547,1.6541,1.6579,1.655,1.6571,1.6563,1.6532,1.6534,1.6597,1.6598,1.6554,1.6669,1.6614,1.6624,1.6665,1.6682,1.6694,1.6692,1.649,0,0,0,0,0,1.6532,1.6562,1.6552,1.6611,1.6617,1.6598,1.6614,1.6593,1.6601,1.6605,1.6602,1.6613,1.6642,1.6662,1.6689,1.6766,1.6766,1.6804,1.6817,1.6828,1.6837,1.6878,1.6895,1.6717,1.6717,1.6717,0,0,1.6583,1.658,1.6601,1.6627,1.6631,1.6665,1.6601,1.664,1.6665,1.6611,1.6664,1.6664,1.6674,1.6742,1.6772,1.6744,1.6886,1.6838,1.6846,1.6849,1.6888,1.6905,1.692,1.6723,1.6722,1.6721,0,0,1.6692,1.6693,1.6743,1.6749,1.6756,1.6743,1.6755,1.6754,1.6751,1.6804,1.6764,1.6796,1.6847,1.6856,1.6867,1.6983,1.6951,1.6993,1.7061,1.7102,1.7116,1.7128,1.7169,1.7184,1.7001,1.7002,1.7002,0,1.6754,1.6801,1.6773,1.6813,1.6826,1.6779,1.683,1.6838,1.6854,1.6865,1.6834,1.6898,1.6901,1.6971,1.6999,1.701,1.7024,1.6991,1.7116,1.7128,1.7139,1.7178,1.7194,1.7006,1.7006,1.7005,1.7005,0,1.6878,1.6912,1.6952,1.6967,1.6985,1.7031,1.7011,1.7033,1.7012,1.7003,1.7059,1.7062,1.7089,1.7104,1.7085,1.7172,1.7155,1.7121,1.7065,1.7161,1.7197,1.7212,1.7013,1.7012,1.701,1.7009,0,0,1.7033,1.7033,1.7048,1.7054,1.706,1.7086,1.7132,1.7157,1.7176,1.719,1.7228,1.7273,1.7242,1.7255,1.7237,1.7273,1.7365,1.7234,1.7234,1.7258,1.7462,1.7487,1.7504,1.7345,1.7348,1.735,1.7461,0,1.7139,1.7213,1.719,1.7266,1.7298,1.7256,1.7295,1.7304,1.7298,1.7326,1.732,1.7353,1.7309,1.7317,1.7351,1.7346,1.7405,1.7338,1.7381,1.7383,1.7378,1.7523,1.7549,1.7653,1.7475,1.7477,1.7479,0,1.7272,1.729,1.7369,1.737,1.7383,1.7418,1.744,1.7467,1.7477,1.747,1.7486,1.7461,1.7508,1.7454,1.7518,1.7473,1.749,1.7491,1.7494,1.7496,1.7435,1.7528,1.7686,1.7701,1.7501,1.7499,1.7498,0,1.7376,1.742,1.7473,1.7481,1.7484,1.751,1.7513,1.752,1.7537,1.7557,1.7568,1.7594,1.7608,1.763,1.7613,1.7575,1.7681,1.7625,1.7677,1.7678,1.77,1.7698,1.7862,1.7713,1.7713,1.7713,1.7712,0,1.7496,1.7546,1.752,1.7553,1.7608,1.7583,1.7639,1.7637,1.7645,1.7678,1.7644,1.7676,1.7652,1.7684,1.7671,1.7727,1.7734,1.7731,1.7727,1.7733,1.7733,1.7742,1.7734,1.7717,1.7716,1.7715,1.7714,0,1.762,1.7605,1.766,1.7659,1.766,1.7701,1.7701,1.7732,1.7725,1.7767,1.7776,1.7765,1.7799,1.7785,1.7823,1.7815,1.7886,1.7873,1.7882,1.7878,1.793,1.7925,1.8104,1.8126,1.7965,1.7966,1.7968,0,1.7697,1.7734,1.7737,1.7756,1.7761,1.7792,1.7809,1.7787,1.7806,1.7822,1.7852,1.7884,1.7908,1.7966,1.7962,1.7991,1.7978,1.8039,1.7982,1.7988,1.7978,1.7976,1.798,1.805,1.8052,1.8053,1.8054,0,1.7834,1.7825,1.785,1.7873,1.7894,1.7912,1.7926,1.7945,1.7923,1.7947,1.7982,1.8001,1.8039,1.8071,1.8097,1.8102,1.8076,1.8073,1.8086,1.8092,1.8095,1.8094,1.7911,1.8068,1.8067,1.8066,1.8065,1.8064,1.7936,1.7968,1.7975,1.8004,1.8013,1.8028,1.8058,1.8054,1.8082,1.811,1.8096,1.8137,1.8149,1.8181,1.819,1.8223,1.8199,1.8219,1.8224,1.8229,1.8235,1.8091,1.8228,1.8228,1.8227,1.8227,1.8227,0,1.8071,1.8074,1.8102,1.8123,1.8147,1.8119,1.8135,1.8157,1.8192,1.8205,1.823,1.8271,1.8303,1.8302,1.8332,1.8359,1.8347,1.8368,1.8365,1.8366,1.8255,1.824,1.8376,1.8376,1.8376,1.8376,1.8376,1.8376,1.8144,1.8196,1.8188,1.8245,1.8249,1.8286,1.8298,1.8313,1.8323,1.8369,1.8395,1.8394,1.8403,1.8434,1.8462,1.8462,1.8474,1.8499,1.8494,1.8389,1.8374,1.836,1.8345,1.8502,1.8502,1.8602,1.8603,1.8604]},{"header":{"parameterUnit":"m.s-1","parameterCategory":1,"la1":30.2991,"la2":30.254,"lo1":-89.0895,"lo2":-89.0444,"dy":0.0017,"dx":0.0017,"nx":28,"ny":28,"refTime":"2024-06-29T03:00:00:Z","depth":0,"parameterNumber":3,"parameterNumberName":"V-component_of_WINDS"},"data":[0,0,0,0,0,0,0,0,0,0,0,0,0,0,0,0,0,0,0,0,0,0,0,0,0,0,0,0,0,0,0,0,0,0,0,0,0,0,0,0,0,0,0,0,0,0,0,0,0,0,0,0,0,0,0,0,0,0,4.353,4.3532,0,4.3676,4.3677,4.3679,4.3693,4.3692,4.369,4.3689,4.3832,4.3837,4.3842,0,0,0,0,0,0,0,0,0,0,0,0,0,4.3258,4.3263,4.353,4.3532,4.3534,4.3675,4.3677,4.3679,4.3693,4.3692,4.369,4.3688,4.383,4.3836,4.3842,0,0,0,0,0,0,0,0,0,0,0,0,0,4.3387,4.3264,4.353,4.3558,4.3562,4.3675,4.3677,4.368,4.3694,4.3692,4.3689,4.3687,4.3828,4.3836,4.3843,4.3936,0,0,4.3867,4.387,0,0,0,0,0,0,0,0,4.3379,4.3397,4.3552,4.3556,4.3561,4.3664,4.3634,4.3766,4.3694,4.3644,4.3689,4.3686,4.3777,4.3789,4.3821,4.3943,4.3949,4.3868,4.3873,4.3876,4.3878,0,0,0,0,0,0,0,4.337,4.3391,4.3588,4.3554,4.356,4.3561,4.3577,4.3659,4.3721,4.3648,4.3649,4.3667,4.3779,4.3814,4.3825,4.3951,4.3868,4.3875,4.3879,4.3882,4.4154,4.4156,0,0,0,0,0,0,4.3357,4.3383,4.3583,4.3592,4.3463,4.3568,4.3586,4.3633,4.372,4.3732,4.3668,4.3667,4.3801,4.3816,4.383,4.3943,4.3876,4.3883,4.3888,4.4151,4.4154,4.4157,0,0,0,0,0,0,4.3351,4.3375,4.3577,4.3488,4.3514,4.3575,4.3628,4.3637,4.3672,4.3736,4.3746,4.3693,4.38,4.3819,4.391,4.3948,4.3887,4.3894,4.4148,4.4152,4.4156,4.4172,0,0,0,0,0,0,4.3343,4.3373,4.3411,4.3489,4.3519,4.3657,4.3631,4.3642,4.3686,4.3685,4.3761,4.3772,4.38,4.3898,4.3917,4.3958,4.39,4.4145,4.415,4.4154,4.4168,4.4176,4.4182,0,0,0,0,0,4.3334,4.3409,4.3413,4.3437,4.3568,4.3659,4.3676,4.3709,4.3689,4.3726,4.3767,4.3769,4.3941,4.3907,4.3929,4.3973,4.4143,4.4149,4.4154,4.4165,4.4174,4.4182,0,0,0,0,0,0,4.3332,4.3419,4.3425,4.3528,4.3586,4.3662,4.371,4.3718,4.3781,4.3778,4.3814,4.3831,4.392,4.3955,4.3916,4.4066,4.4039,4.405,4.404,4.4049,4.4056,4.4046,4.3906,0,0,0,0,0,4.3344,4.3413,4.3485,4.3568,4.3598,4.3649,4.369,4.371,4.3771,4.3795,4.3843,4.39,4.3966,4.401,4.4075,4.4173,4.4188,4.4213,4.422,4.4226,4.4234,4.4287,4.4298,4.4176,4.4176,4.4176,0,0,4.3369,4.3425,4.3466,4.357,4.3617,4.3686,4.3669,4.3743,4.3793,4.3806,4.3895,4.3931,4.3997,4.4092,4.4135,4.4124,4.4271,4.4233,4.4237,4.4243,4.4294,4.4305,4.4315,4.418,4.4179,4.4178,0,0,4.3449,4.3499,4.3574,4.3622,4.3694,4.3728,4.3745,4.3819,4.3845,4.3935,4.3945,4.4004,4.4118,4.4165,4.4203,4.4298,4.4302,4.4318,4.4355,4.4406,4.4415,4.4424,4.4457,4.4468,4.4326,4.4326,4.4326,0,4.347,4.3577,4.3611,4.3684,4.3728,4.3743,4.3818,4.3862,4.3951,4.398,4.3966,4.4109,4.4155,4.4259,4.4282,4.4313,4.4333,4.431,4.4411,4.442,4.4429,4.4461,4.4473,4.4328,4.4327,4.4327,4.4327,0,4.3598,4.3671,4.3722,4.381,4.3859,4.3933,4.3976,4.4021,4.4036,4.4069,4.4159,4.4214,4.429,4.4316,4.4331,4.4422,4.4412,4.4404,4.4379,4.4442,4.4472,4.4484,4.433,4.4329,4.4329,4.4328,0,0,4.3683,4.3788,4.3806,4.3845,4.3925,4.3981,4.4053,4.4129,4.4167,4.4226,4.4287,4.4382,4.4375,4.4419,4.4438,4.4483,4.4553,4.4469,4.4471,4.4482,4.4655,4.466,4.4674,4.4555,4.4558,4.456,4.4649,0,4.3772,4.3905,4.3937,4.4049,4.4116,4.4129,4.4192,4.4246,4.4279,4.4338,4.4373,4.444,4.4426,4.4452,4.4497,4.4535,4.4588,4.4529,4.461,4.4612,4.4594,4.469,4.4697,4.4779,4.4661,4.4663,4.4664,0,4.3895,4.3959,4.4078,4.4148,4.4177,4.4234,4.4304,4.4361,4.4422,4.4442,4.449,4.4504,4.4577,4.4547,4.4647,4.4606,4.4641,4.4664,4.4668,4.4677,4.4643,4.4701,4.4805,4.4818,4.4684,4.4682,4.4681,0,4.3944,4.406,4.4146,4.4179,4.4263,4.4302,4.4338,4.4396,4.4439,4.45,4.4527,4.4595,4.4632,4.4682,4.4713,4.4689,4.481,4.4783,4.4827,4.4827,4.4853,4.4851,4.4964,4.4875,4.4875,4.4875,4.4874,0,4.4041,4.4113,4.4169,4.4222,4.4302,4.4337,4.4414,4.445,4.4502,4.456,4.4575,4.4628,4.4667,4.4725,4.4749,4.4827,4.4844,4.4861,4.4866,4.486,4.4858,4.4883,4.4878,4.4878,4.4877,4.4877,4.4876,0,4.411,4.4151,4.4246,4.4317,4.4336,4.4392,4.4452,4.4502,4.4534,4.4607,4.4626,4.4676,4.4745,4.4781,4.4867,4.4883,4.497,4.4973,4.4951,4.4953,4.4996,4.4991,4.5129,4.5149,4.5046,4.5047,4.5048,0,4.4169,4.4225,4.4302,4.4343,4.438,4.4446,4.449,4.4524,4.4568,4.464,4.4681,4.4752,4.481,4.4919,4.4961,4.5026,4.503,4.5074,4.504,4.5031,4.503,4.5026,4.5031,4.508,4.5081,4.5081,4.5082,0,4.4269,4.4286,4.435,4.442,4.4472,4.4528,4.4584,4.4616,4.4659,4.4707,4.4779,4.4824,4.4912,4.498,4.5048,4.5082,4.5089,4.5092,4.5106,4.51,4.5085,4.5093,4.4967,4.5089,4.5088,4.5088,4.5088,4.5087,4.4335,4.4385,4.4447,4.4516,4.4562,4.4613,4.4664,4.4702,4.4763,4.4838,4.4854,4.4929,4.4985,4.5077,4.5113,4.5171,4.5162,4.5182,4.5187,4.5191,4.5193,4.5075,4.5183,4.5183,4.5183,4.5183,4.5183,0,4.4436,4.4476,4.4539,4.4617,4.4671,4.4674,4.4734,4.4779,4.4846,4.4898,4.4955,4.5036,4.5102,4.5149,4.5216,4.5252,4.5257,4.5269,4.5266,4.5274,4.5198,4.5179,4.5264,4.5264,4.5264,4.5264,4.5264,4.5264,4.4495,4.4579,4.4603,4.4708,4.4747,4.4823,4.4857,4.4903,4.4945,4.5036,4.5091,4.5122,4.5171,4.5241,4.5301,4.5313,4.5336,4.5348,4.536,4.5288,4.5279,4.5271,4.5254,4.5353,4.5353,4.5431,4.5432,4.5432]}]]